| time (UTC) | temp F | wind direction | speed knots | gust knots | rain 1hr in | rain 24hr in | rain mn in | humidity % | barometer mb |
| 20260504211539 | 56 | 284 | 5.2 | 10.4 | 0.00 | 0.01 | 0.01 | 67 | 1004.1 |
| 20260504210038 | 55 | 301 | 3.5 | 7.8 | 0.00 | 0.01 | 0.01 | 68 | 1004.1 |
| 20260504204536 | 56 | 280 | 6.1 | 15.6 | 0.00 | 0.03 | 0.01 | 65 | 1003.8 |
| 20260504203037 | 55 | 265 | 7.0 | 14.8 | 0.00 | 0.03 | 0.01 | 67 | 1003.6 |
| 20260504201539 | 56 | 312 | 7.0 | 13.0 | 0.00 | 0.03 | 0.01 | 67 | 1003.5 |
| 20260504200045 | 55 | 281 | 6.1 | 13.9 | 0.00 | 0.03 | 0.01 | 68 | 1003.5 |
| 20260504194537 | 55 | 282 | 5.2 | 14.8 | 0.00 | 0.06 | 0.01 | 69 | 1003.5 |
| 20260504193036 | 54 | 269 | 7.0 | 13.9 | 0.00 | 0.06 | 0.01 | 70 | 1003.5 |
| 20260504191542 | 54 | 256 | 7.0 | 14.8 | 0.00 | 0.06 | 0.01 | 70 | 1003.5 |
| 20260504190036 | 53 | 203 | 7.8 | 15.6 | 0.00 | 0.06 | 0.01 | 71 | 1003.6 |
| 20260504184553 | 53 | 261 | 7.0 | 16.5 | 0.00 | 0.12 | 0.01 | 72 | 1003.8 |
| 20260504183039 | 52 | 279 | 7.8 | 13.0 | 0.00 | 0.12 | 0.01 | 75 | 1003.9 |
| 20260504181538 | 50 | 311 | 3.5 | 8.7 | 0.00 | 0.12 | 0.01 | 83 | 1004.1 |
| 20260504180035 | 50 | 264 | 3.5 | 7.8 | 0.00 | 0.12 | 0.01 | 83 | 1004.2 |
| 20260504174539 | 50 | 286 | 3.5 | 8.7 | 0.01 | 0.18 | 0.01 | 83 | 1004.1 |
| 20260504173037 | 49 | 272 | 3.5 | 8.7 | 0.01 | 0.18 | 0.01 | 83 | 1004.0 |
| 20260504171536 | 49 | 292 | 4.3 | 8.7 | 0.01 | 0.18 | 0.01 | 84 | 1004.0 |
| 20260504081538 | 33 | 296 | 2.6 | 7.0 | 0.00 | 0.70 | 0.00 | 81 | 1004.7 |
| 20260504044546 | 36 | 309 | 3.5 | 7.0 | 0.00 | 0.71 | 0.00 | 81 | 1003.5 |
| 20260504043039 | 36 | 305 | 1.7 | 7.0 | 0.00 | 0.71 | 0.00 | 81 | 1003.4 |
| 20260504041539 | 37 | 300 | 2.6 | 7.0 | 0.00 | 0.71 | 0.00 | 82 | 1003.3 |
| 20260504040045 | 37 | 283 | 3.5 | 6.1 | 0.00 | 0.71 | 0.00 | 82 | 1003.2 |
| 20260504034538 | 37 | 293 | 3.5 | 7.8 | 0.00 | 0.71 | 0.71 | 82 | 1003.0 |
| 20260504033051 | 37 | 299 | 2.6 | 7.0 | 0.00 | 0.71 | 0.71 | 83 | 1003.0 |
| 20260504031543 | 37 | 298 | 1.7 | 7.8 | 0.00 | 0.71 | 0.71 | 83 | 1002.9 |
| 20260504030038 | 37 | 305 | 2.6 | 7.0 | 0.00 | 0.71 | 0.71 | 83 | 1002.8 |
| 20260504024553 | 37 | 315 | 3.5 | 7.0 | 0.00 | 0.71 | 0.71 | 83 | 1002.6 |
| 20260504023046 | 38 | 306 | 3.5 | 7.8 | 0.00 | 0.71 | 0.71 | 84 | 1002.5 |
| 20260504021548 | 39 | 285 | 3.5 | 8.7 | 0.00 | 0.71 | 0.71 | 85 | 1002.4 |
| 20260504020042 | 39 | 283 | 3.5 | 8.7 | 0.00 | 0.71 | 0.71 | 85 | 1002.3 |
| 20260504014540 | 40 | 289 | 3.5 | 8.7 | 0.00 | 0.71 | 0.71 | 88 | 1002.4 |
| 20260504013046 | 40 | 348 | 3.5 | 11.3 | 0.00 | 0.71 | 0.71 | 93 | 1002.2 |
| 20260504011543 | 40 | 312 | 2.6 | 7.8 | 0.00 | 0.71 | 0.71 | 95 | 1002.1 |
| 20260504010043 | 40 | 306 | 0.9 | 5.2 | 0.00 | 0.71 | 0.71 | 94 | 1001.9 |
| 20260504004546 | 41 | 0 | 1.7 | 5.2 | 0.00 | 0.71 | 0.71 | 93 | 1001.8 |
| 20260504003038 | 41 | 315 | 1.7 | 5.2 | 0.00 | 0.71 | 0.71 | 93 | 1001.5 |
| 20260504001540 | 41 | 311 | 2.6 | 7.0 | 0.00 | 0.71 | 0.71 | 94 | 1001.2 |
| 20260504000044 | 41 | 352 | 1.7 | 7.0 | 0.00 | 0.71 | 0.71 | 94 | 1001.3 |
| 20260503234539 | 41 | 329 | 1.7 | 6.1 | 0.00 | 0.71 | 0.71 | 94 | 1001.0 |
| 20260503233038 | 41 | 254 | 2.6 | 7.8 | 0.00 | 0.71 | 0.71 | 93 | 1000.9 |
| 20260503231540 | 42 | 322 | 2.6 | 7.8 | 0.00 | 0.71 | 0.71 | 93 | 1000.8 |
| 20260503230050 | 42 | 298 | 1.7 | 7.8 | 0.00 | 0.71 | 0.71 | 93 | 1000.8 |
| 20260503224543 | 42 | 326 | 2.6 | 7.8 | 0.00 | 0.71 | 0.71 | 93 | 1000.5 |
| 20260503223040 | 42 | 22 | 1.7 | 11.3 | 0.00 | 0.71 | 0.71 | 94 | 1000.5 |
| 20260503221538 | 42 | 346 | 3.5 | 13.0 | 0.00 | 0.71 | 0.71 | 94 | 1000.4 |
| 20260503220045 | 42 | 36 | 2.6 | 8.7 | 0.00 | 0.71 | 0.71 | 94 | 1000.5 |
| 20260503214541 | 42 | 5 | 1.7 | 8.7 | 0.00 | 0.71 | 0.71 | 95 | 1000.3 |
| 20260503213043 | 41 | 335 | 1.7 | 11.3 | 0.01 | 0.71 | 0.71 | 95 | 1000.3 |